Laramie, WY

1:36 PM MST on November 24, 2017 (GMT -0700)
Laramie Regional

Weather History for KLAR - October, 2010

Change the Weather History Date:

Thursday, October 14, 2010

  Actual Average Record
Temperature  
Mean Temperature 49 °F 43 °F  
Max Temperature 69 °F 57 °F 78 °F (1958)
Min Temperature 29 °F 29 °F 8 °F (1969)
Degree Days  
Heating Degree Days 16 22  
Month to date heating degree days 206 282  
Since 1 July heating degree days 570 807  
Cooling Degree Days 0 0  
Month to date cooling degree days 0 0  
Year to date cooling degree days 73 67  
Moisture  
Dew Point 26 °F    
Average Humidity 50    
Maximum Humidity 85    
Minimum Humidity 15    
Precipitation  
Precipitation 0.00 in 0.03 in 0.98 in (1957)
Month to date precipitation 0.79 0.40  
Year to date precipitation 9.39 9.66  
Sea Level Pressure  
Sea Level Pressure 30.25 in    
Wind  
Wind Speed 7 mph (SSE)    
Max Wind Speed 14 mph    
Max Gust Speed 17 mph    
Visibility 10 miles    
Events      
T = Trace of Precipitation, MM = Missing Value Source: NWS Daily Summary

Daily Weather History Graph

Daily Weather History Graph

Search for Another Location

Airport or City:

Trip Planner

Search our weather history database for the weather conditions in past years. The results will help you decide how hot, cold, wet, or windy it might be!

Date:

Astronomy

Oct. 14, 2010 Rise Set
Actual Time 7:13 AM MDT 6:23 PM MDT
Civil Twilight 6:45 AM MDT 6:51 PM MDT
Nautical Twilight 6:13 AM MDT 7:23 PM MDT
Astronomical Twilight 5:41 AM MDT 7:54 PM MDT
Moon 2:16 PM MDT (10/14) No Moon Set
Length of Visible Light 12h 05m
Length of Day
11h 09m
Waxing Crescent, 49% of the Moon is Illuminated
Oct 14
Waxing Crescent
Oct 14
First Quarter
Oct 22
Full
Oct 30
Last Quarter
Nov 5
New

Hourly Weather History & Observations

Time (MDT) Temp. Windchill Dew Point Humidity Pressure Visibility Wind Dir Wind Speed Gust Speed Precip Events Conditions
12:53 AM 34.0 °F 27.2 °F 28.0 °F 79% 30.36 in 10.0 mi SSE 8.1 mph - N/A   Clear
1:53 AM 32.0 °F 28.7 °F 27.0 °F 82% 30.35 in 10.0 mi SSE 3.5 mph - N/A   Clear
2:53 AM 34.0 °F 31.0 °F 26.1 °F 73% 30.32 in 10.0 mi SSW 3.5 mph - N/A   Clear
3:53 AM 30.9 °F 22.8 °F 26.1 °F 82% 30.32 in 10.0 mi SE 9.2 mph - N/A   Clear
4:53 AM 30.2 °F 25.4 °F 24.8 °F 80% 30.44 in 10.0 mi SSE 4.6 mph - N/A   Clear
5:53 AM 30.9 °F 23.5 °F 25.0 °F 79% 30.30 in 10.0 mi SSE 8.1 mph - N/A   Clear
6:53 AM 30.0 °F 23.2 °F 24.1 °F 79% 30.36 in 10.0 mi SE 6.9 mph - N/A   Clear
7:53 AM 33.1 °F 26.9 °F 26.1 °F 75% 30.38 in 10.0 mi SE 6.9 mph - N/A   Clear
8:53 AM 42.1 °F 39.2 °F 28.9 °F 60% 30.35 in 10.0 mi SSE 4.6 mph - N/A   Clear
9:53 AM 54.0 °F - 28.9 °F 38% 30.29 in 10.0 mi WSW 8.1 mph - N/A   Clear
10:53 AM 59.0 °F - 27.0 °F 29% 30.27 in 10.0 mi West 6.9 mph - N/A   Clear
11:53 AM 63.0 °F - 24.1 °F 23% 30.23 in 10.0 mi NNW 5.8 mph - N/A   Clear
12:53 PM 64.9 °F - 24.1 °F 21% 30.21 in 10.0 mi North 3.5 mph - N/A   Clear
1:53 PM 66.0 °F - 23.0 °F 20% 30.18 in 10.0 mi Variable 4.6 mph - N/A   Clear
2:53 PM 68.0 °F - 21.9 °F 17% 30.15 in 10.0 mi North 8.1 mph - N/A   Clear
3:53 PM 69.1 °F - 19.0 °F 15% 30.15 in 10.0 mi North 6.9 mph - N/A   Clear
4:53 PM 68.0 °F - 19.9 °F 16% 30.14 in 10.0 mi North 13.8 mph - N/A   Clear
5:53 PM 64.0 °F - 24.1 °F 22% 30.15 in 10.0 mi North 6.9 mph - N/A   Clear
6:53 PM 55.0 °F - 26.1 °F 33% 30.20 in 10.0 mi North 5.8 mph - N/A   Clear
7:53 PM 46.9 °F - 28.9 °F 50% 30.25 in 10.0 mi ENE 5.8 mph - N/A   Clear
8:53 PM 46.9 °F - 28.0 °F 48% 30.20 in 10.0 mi SE 5.8 mph - N/A   Clear
9:53 PM 42.1 °F 36.6 °F 30.0 °F 62% 30.18 in 10.0 mi South 9.2 mph - N/A   Clear
10:53 PM 41.0 °F 35.8 °F 28.0 °F 60% 30.14 in 10.0 mi SSW 8.1 mph - N/A   Clear
11:53 PM 41.0 °F 37.1 °F 27.0 °F 57% 30.11 in 10.0 mi SW 5.8 mph - N/A   Clear